Location: Observatoire
(46.1952°N, 5.3391°E)
Time: 05:35:23
(UTC+02:00)

NOAA 15 - Visible Passes

Search period start: 16 April 2024 00:00
Search period end: 26 April 2024 00:00
Orbit: 795 x 811 km, 98.6° (Epoch: 15 April)

Date Brightness Start Highest point End Pass type
(mag) Time Alt. Az. Time Alt. Az. Time Alt. Az.
16 Apr 6.5 21:13:55 10° SSW 21:18:37 32° W 21:23:20 10° NNW visible
18 Apr 7.5 22:05:29 10° WSW 22:07:36 12° W 22:09:44 10° WNW visible
19 Apr 7.1 21:37:40 10° SW 21:41:36 21° W 21:45:33 10° NW visible
20 Apr 6.4 21:10:57 10° SSW 21:15:42 34° W 21:20:29 10° NNW visible
22 Apr 7.4 22:02:15 10° WSW 22:04:40 13° W 22:07:04 10° WNW visible
23 Apr 7.1 21:34:38 10° SW 21:38:40 22° W 21:42:43 10° NW visible
24 Apr 6.3 21:07:58 10° SSW 21:12:47 36° W 21:17:37 10° NNW visible
